CST,Max TemperatureF,Mean TemperatureF,Min TemperatureF,Max Dew PointF,MeanDew PointF,Min DewpointF,Max Humidity, Mean Humidity, Min Humidity, Max Sea Level PressureIn, Mean Sea Level PressureIn, Min Sea Level PressureIn, Max VisibilityMiles, Mean VisibilityMiles, Min VisibilityMiles, Max Wind SpeedMPH, Mean Wind SpeedMPH, Max Gust SpeedMPH,PrecipitationIn, CloudCover, Events, WindDirDegrees
2013-2-1,24,8,-7,21,0,-15,86,72,61,30.31,30.12,29.94,10,10,10,25,13,25,0.00,4,,228
2013-2-2,33,22,10,30,15,5,100,81,63,30.14,30.04,29.95,10,9,0,37,14,44,0.00,6,Snow,294
2013-2-3,37,24,10,30,19,7,87,78,60,30.12,29.95,29.72,10,10,6,23,16,31,0.00,3,Snow,245
2013-2-4,32,23,14,28,15,10,100,81,63,29.99,29.89,29.73,10,10,8,23,13,28,0.00,5,,323
2013-2-5,42,32,23,30,26,21,100,83,56,30.05,29.88,29.72,10,9,4,22,15,29,0.00,2,,301
2013-2-6,44,32,21,36,30,21,100,85,61,30.05,29.92,29.82,10,7,2,25,11,30,0.00,5,,160
2013-2-7,37,30,23,34,27,21,100,92,80,30.22,30.03,29.88,10,6,0,22,12,28,0.00,7,Fog,353
2013-2-8,30,26,21,25,22,19,100,91,69,30.30,30.23,30.13,10,9,5,23,10,28,0.00,7,,127
2013-2-9,46,35,24,34,29,25,100,88,57,30.14,29.93,29.73,10,6,2,26,21,33,0.01,5,Rain,154
2013-2-10,39,32,26,39,32,23,100,98,80,29.73,29.40,29.19,10,3,0,34,18,43,0.25,8,Fog-Rain-Snow,186
2013-2-11,28,26,23,25,21,18,93,84,80,30.07,29.93,29.57,10,9,3,37,27,45,0.00,8,Rain-Snow,297
2013-2-12,41,29,17,30,23,16,93,81,57,30.08,29.94,29.83,10,10,10,20,11,26,0.00,1,,251
2013-2-13,48,36,24,36,29,23,100,83,57,29.84,29.73,29.63,10,10,10,20,11,25,0.00,3,,261
2013-2-14,37,27,17,32,24,5,100,80,58,30.21,29.93,29.68,10,10,8,26,18,36,0.00,6,,321
2013-2-15,26,19,12,16,11,5,86,74,59,30.29,30.26,30.21,10,10,8,15,12,20,0.00,3,Snow,326
2013-2-16,35,22,10,25,15,7,93,78,52,30.26,30.10,30.00,10,10,10,13,8,16,0.00,2,,227
2013-2-17,48,34,19,30,25,18,93,76,50,30.00,29.78,29.55,10,10,8,26,13,32,0.00,1,,157
2013-2-18,39,24,10,32,19,3,93,76,63,29.94,29.71,29.51,10,10,10,32,18,41,0.00,5,Rain-Snow,312
2013-2-19,15,8,1,3,-1,-6,79,63,45,30.33,30.16,29.94,10,10,4,31,24,41,0.00,3,Rain-Snow,319
2013-2-20,21,8,-4,9,-2,-11,78,61,39,30.36,30.30,30.23,10,10,10,15,11,18,0.00,2,,75
2013-2-21,24,18,12,18,12,9,93,75,50,30.26,30.07,29.86,10,7,0,28,17,36,0.00,6,Snow,78
2013-2-22,23,18,12,18,15,10,93,87,74,29.93,29.87,29.80,10,7,0,21,15,26,0.00,7,Snow,327
2013-2-23,24,14,5,19,11,1,100,88,74,29.92,29.86,29.81,10,7,1,14,9,,0.00,0,,184
2013-2-24,30,18,6,28,19,3,100,95,85,30.04,29.96,29.86,4,2,0,8,5,,0.00,7,Fog-Snow,113
2013-2-25,26,24,23,27,24,23,100,100,93,30.07,30.01,29.93,3,1,0,13,6,,0.00,8,Fog-Rain-Snow,10
2013-2-26,30,26,23,28,25,23,100,96,80,29.93,29.84,29.78,6,3,0,44,21,58,0.00,5,Fog-Snow,2
2013-2-27,35,28,21,25,21,19,100,84,65,30.02,29.90,29.82,10,9,4,25,19,34,0.00,3,,337
2013-2-28,28,24,21,23,22,19,100,88,74,30.17,30.12,30.03,10,8,5,22,15,24,0.00,8,Rain-Snow,335